TimeGMT,TemperatureF,Dew PointF,Humidity,Sea Level PressureIn,VisibilityMPH,Wind Direction,Wind SpeedMPH,Gust SpeedMPH,PrecipitationIn,Events,Conditions,WindDirDegrees,DateUTC
2:50 AM,38,37,93,30.14,1,South,4.6,,,Fog,Fog,180,2012-12-19 02:50:00
5:50 AM,37,36,97,30.13,0,SE,3.5,,,Fog,Fog,140,2012-12-19 05:50:00
7:20 AM,39.2,39.2,100,30.12,3.7,ESE,5.8,-,N/A,Fog,Fog,120,2012-12-19 07:20:00
7:50 AM,39.2,37.4,93,30.12,3.7,SE,4.6,-,N/A,,Unknown,130,2012-12-19 07:50:00
8:20 AM,39.2,39.2,100,30.12,5.0,SSE,4.6,-,N/A,,Unknown,150,2012-12-19 08:20:00
8:50 AM,40,38,92,30.12,5,SSE,8.1,,,,Light Haze,150,2012-12-19 08:50:00
8:50 AM,41.0,39.2,93,30.12,-9999.0,SSE,5.8,-,N/A,,Clear,150,2012-12-19 08:50:00
9:20 AM,42.8,37.4,81,30.12,-9999.0,SSE,5.8,-,N/A,,Clear,160,2012-12-19 09:20:00
9:50 AM,42.8,37.4,81,30.12,-9999.0,SSE,5.8,-,N/A,,Clear,160,2012-12-19 09:50:00
10:20 AM,42.8,37.4,81,30.12,-9999.0,SSE,9.2,-,N/A,,Clear,150,2012-12-19 10:20:00
10:50 AM,44.6,39.2,81,30.12,-9999.0,SSE,11.5,-,N/A,,Clear,150,2012-12-19 10:50:00
11:20 AM,44.6,39.2,81,30.09,-9999.0,SE,13.8,-,N/A,,Clear,140,2012-12-19 11:20:00
11:50 AM,45,38,69,30.10,16,SE,16.1,,,,Overcast,140,2012-12-19 11:50:00
11:50 AM,44.6,39.2,81,30.09,-9999.0,SE,13.8,-,N/A,,Clear,140,2012-12-19 11:50:00
12:20 PM,44.6,39.2,81,30.09,-9999.0,SE,13.8,-,N/A,,Clear,140,2012-12-19 12:20:00
12:50 PM,44.6,39.2,81,30.09,-9999.0,SE,12.7,-,N/A,,Clear,140,2012-12-19 12:50:00
1:20 PM,44.6,39.2,81,30.06,-9999.0,SE,13.8,-,N/A,,Clear,140,2012-12-19 13:20:00
1:50 PM,44.6,41.0,87,30.06,-9999.0,SE,13.8,-,N/A,,Clear,140,2012-12-19 13:50:00
2:20 PM,44.6,39.2,81,30.06,-9999.0,SE,13.8,-,N/A,,Clear,140,2012-12-19 14:20:00
2:50 PM,44,39,76,30.07,6,SE,17.3,,,,Light Haze,130,2012-12-19 14:50:00
2:50 PM,44.6,39.2,81,30.06,5.6,SE,15.0,-,N/A,,Unknown,140,2012-12-19 14:50:00
3:20 PM,44.6,39.2,81,30.06,4.3,SE,16.1,-,N/A,,Unknown,130,2012-12-19 15:20:00
3:50 PM,44.6,39.2,81,30.04,4.3,SE,16.1,-,N/A,,Unknown,130,2012-12-19 15:50:00
4:20 PM,44.6,39.2,81,30.04,4.3,SE,18.4,-,N/A,,Unknown,130,2012-12-19 16:20:00
4:50 PM,44.6,41.0,87,30.04,3.7,SE,17.3,-,N/A,Rain,Light Rain,140,2012-12-19 16:50:00
5:20 PM,44.6,41.0,87,30.04,4.3,SE,18.4,-,N/A,Rain,Light Rain,140,2012-12-19 17:20:00
5:50 PM,44,41,83,30.03,4,SE,21.9,,,Rain,Rain,130,2012-12-19 17:50:00
5:50 PM,44.6,41.0,87,30.01,4.3,SE,19.6,-,N/A,,Partly Cloudy,140,2012-12-19 17:50:00
6:20 PM,44.6,41.0,87,30.01,4.3,SE,19.6,-,N/A,,Partly Cloudy,130,2012-12-19 18:20:00
8:50 PM,43,41,88,29.98,3,SE,23.0,,,Rain,Rain,140,2012-12-19 20:50:00
11:50 PM,43,40,87,29.91,4,SE,24.2,,,Rain,Rain,130,2012-12-19 23:50:00